www.pogodaiklimat.ru

Погода и климат >> Архив погоды >> Пакистан >> Chhor


ПОГОДА в Chhor

  • Прогноз погоды в Chhor
  • Монитор погоды в Chhor
  • Климат города

АРХИВ ПОГОДЫ в Chhor

Время (UTC), дата Ветер
(напр.,м/с)
 
Видим.   Явления Облачность Т
(С)
Тd
(С)
f
(%)
Тe
(С)
Тes
(С)
Комфортность P
(гПа)
Po
(гПа)
Тmin
(С)
Tmax
(С)
R
(мм)
R24
(мм)
S
(см)
03 19.02 штиль 0 <50 м туман ?/? +18.0 +16.3 90 +18 +18 1012.2 1011.5 +15.0
06 19.02 Ю 1 2000 м дым ясно +27.0 +22.6 77 +36 +50 очень
душно
1013.3 1012.6
09 19.02 ЮЗ 1 4000 м 3/0
[Ci fib]
+34.5 +15.6 32 +36 +49 душно 1009.8 1000.0
12 19.02 З 1 4000 м ясно +35.0 +14.1 29 +36 +37 очень
жарко
1007.7 1007.1 +36.0
15 19.02 штиль 0 4000 м ясно +26.0 +15.2 51 +29 +29 душно 1009.8 1000.0
18 19.02 ЮЗ 2 4000 м ясно +22.5 +15.0 63 +26 +26 жарко 1011.6 997.1
21 19.02 ЮЗ 1 4000 м ясно +20.5 +14.6 69 +25 +25 комфорт 1011.2 1000.0
00 20.02 штиль 0 4000 м ясно +19.0 +14.7 76 +20 +20 1011.1 1010.4
03 20.02 штиль 0 500 м дымка ясно +18.0 +16.0 88 +18 +21 1012.6 1011.9 +17.1
06 20.02 ЮЗ 1 2000 м дым ясно +28.5 +19.4 58 +34 +50 очень
душно
1014.3 1013.6
09 20.02 ЮЗ 2 4000 м 4/0
[Ci fib]
+35.0 +16.3 33 +38 +48 очень
душно
1010.9 1011.0
12 20.02 З 1 4000 м 4/0
[Ci fib]
+34.5 +16.6 34 +37 +39 очень
душно
1009.2 1008.6 +36.5
18 20.02 ЮЗ 1 4000 м ясно +23.0 +14.6 59 +27 +27 душно 1011.1 1010.4
21 20.02 ЮЗ 1 4000 м ясно +21.0 +15.1 69 +26 +26 душно 1010.8 1000.0
00 21.02 штиль 0 4000 м ясно +18.5 +15.1 81 +19 +19 1010.1 1009.4
03 21.02 ЮЗ 1 1000 м дымка ясно +19.5 +17.0 85 +23 +25 комфорт 1011.8 1011.1 +16.5
06 21.02 ЮЗ 1 2000 м дым ясно +28.5 +16.6 49 +32 +48 душно 1013.7 1013.0
09 21.02 ЮЗ 1 4000 м ясно +35.5 +11.2 23 +35 +50 очень
жарко
1010.1 1000.0
12 21.02 ЮЗ 2 4000 м ясно +35.0 +11.6 24 +35 +36 очень
жарко
1006.7 1006.1 +36.5
15 21.02 ЮЗ 1 4000 м ясно +28.5 +14.6 43 +31 +31 душно 1008.8 1009.0
18 21.02 штиль 0 4000 м ясно +22.5 +15.0 63 +26 +26 жарко 1010.6 1009.9
21 21.02 ЮЗ 1 4000 м ясно +21.0 +15.1 69 +25 +25 комфорт 1010.3 1010.0
00 22.02 ЮЗ 1 4000 м ясно +18.0 +15.5 85 +19 +19 1009.2 1008.5
03 22.02 ЮЗ 1 50 м туман ?/? +18.5 +17.7 95 +20 +20 1010.5 1009.8 +16.5
06 22.02 штиль 0 2000 м дым ясно +25.5 +19.3 69 +31 +48 очень
душно
1011.9 1011.2
09 22.02 ЮЗ 2 4000 м 4/0
[Ci fib]
+33.0 +17.6 40 +37 +48 очень
душно
1008.1 1008.0
12 22.02 ЮЗ 1 4000 м 4/0
[Ci fib]
+32.0 +18.2 44 +37 +38 очень
душно
1005.8 1005.2 +33.5
15 22.02 штиль 0 4000 м 3/0
[Ac trans]
+28.0 +18.8 57 +33 +33 очень
душно
1007.7 1000.0
18 22.02 штиль 0 4000 м 3/0
[Ac trans]
+23.5 +17.1 67 +27 +27 душно 1010.8 997.8
21 22.02 штиль 0 4000 м ясно +21.5 +15.7 70 +25 +25 комфорт 1010.5 1000.0
00 23.02 штиль 0 4000 м ясно +20.0 +16.7 81 +22 +22 комфорт 1009.2 1007.9
03 23.02 ЮЗ 1 200 м туман ?/? +19.5 +18.7 95 +23 +23 комфорт 1010.7 1010.0 +17.3
06 23.02 ЮЗ 2 2000 м дым 5/0
[Ac trans Ci fib]
+26.5 +18.8 63 +32 +41 очень
душно
1012.4 1011.7
09 23.02 ЮЗ 1 4000 м 8/0
[Ac trans Ci fib]
+32.0 +15.2 36 +34 +44 душно 1008.5 1010.2
12 23.02 З 2 4000 м 3/0
[Ci fib]
+32.0 +15.2 36 +34 +35 душно 1006.7 1006.1 +33.8
15 23.02 ЮЗ 1 4000 м 3/0
[Ci fib]
+27.5 +15.3 47 +30 +30 жарко 1007.9 1000.0
18 23.02 ЮЗ 2 4000 м ясно +22.5 +14.0 59 +26 +26 жарко 1009.8 997.3
21 23.02 ЮЗ 1 4000 м ясно +21.0 +14.2 65 +25 +25 комфорт 1009.3 1000.0
00 24.02 ЮЗ 1 2000 м дымка ясно +18.0 +16.3 90 +19 +19 1010.5 1009.8
03 24.02 штиль 0 1000 м туман ?/? +18.0 +16.3 90 +18 +18 1014.0 1013.3 +16.2
06 24.02 штиль 0 2000 м дым ясно +25.5 +16.7 58 +29 +47 душно 1015.7 1015.0
09 24.02 штиль 0 4000 м ясно +32.5 +14.8 34 +34 +51 опасность
солнечного
удара
1011.3 1011.4
12 24.02 З 1 4000 м 6/0
[Ac trans Ci fib]
+32.5 +15.9 37 +35 +36 душно 1009.0 1008.4 +34.5
15 24.02 штиль 0 4000 м 6/0
[Ac trans Ci fib]
+26.5 +17.0 56 +30 +30 душно 1011.5 1012.0
18 24.02 СЗ 1 4000 м ясно +22.5 +15.0 63 +26 +26 жарко 1014.1 1013.4
21 24.02 штиль 0 4000 м ясно +20.0 +14.9 72 +22 +22 комфорт 1014.1 1013.6
00 25.02 СВ 1 4000 м ясно +18.5 +12.3 67 +20 +20 1012.3 1014.1
03 25.02 СВ 1 4000 м ясно +20.5 +10.4 52 +24 +26 комфорт 1016.9 1016.2 +17.5
06 25.02 В 3 4000 м ясно +29.5 +12.7 36 +31 +42 жарко 1018.2 1017.5
09 25.02 СВ 1 4000 м ясно +35.5 +7.4 18 +34 +49 очень
жарко
1014.3 1000.0
12 25.02 С 1 4000 м ясно +33.0 +10.9 26 +33 +34 жарко 1012.1 1011.5 +35.9
15 25.02 штиль 0 4000 м ясно +27.0 +13.6 44 +29 +29 жарко 1014.1 1000.0
18 25.02 СВ 1 4000 м ясно +23.5 +12.2 49 +25 +25 комфорт 1015.3 1014.6
21 25.02 штиль 0 4000 м ясно +21.5 +11.7 54 +24 +24 комфорт 1015.2 1000.0

 

Местоположение метеостанции Chhor (Пакистан): широта 25.52 долгота 69.78 высота над уровнем моря 6 м.

В архиве по умолчанию представлена погода в Chhor за последнюю неделю. Архивные данные за месяц целиком и за предыдущие месяцы, начиная с января 2011 года, Вы можете получить, выбрав интересующий диапазон дат из раскрывающегося списка и нажав кнопку "Ввод!".

Внимание! Время в таблицах - всемирное. Для получения местного времени необходимо прибавить поправку, которая в Chhor равна 5 ч.

Смотрите также архив погоды в соседних городах и на ближайших метеорологических станциях:

Погода в Badin (Пакистан) (133 км)
Погода в Hyderabad (Пакистан) (137 км)
Погода в Barmer (Rajasthan, Индия) (162 км)
Погода в Nawabshah (Пакистан) (163 км)
Погода в Jaisalmer (Rajasthan, Индия) (191 км)
Погода в Pad Idan (Пакистан) (221 км)
Погода в Bhuj-Rudramata (Gujarat, Индия) (253 км)
Погода в Rohri (Пакистан) (255 км)
Погода в Naliya (Gujarat, Индия) (269 км)
Погода в Kandla (Gujarat, Индия) (270 км)

Пояснения к столбцам:

Ветер - указаны скорость ветра в м/с - средняя за 10 мин, порывы в срок и между сроками (в фигурных скобках) и направление, откуда дует ветер: С - северный, СВ - северо-восточный, В - восточный, ЮВ - юго-восточный, Ю - южный, ЮЗ - юго-западный, З - западный, СЗ - северо-западный.
Видимость - горизонтальная дальность видимости в метрах или километрах. При видимости от 1 до 10 км при отсутствии осадков обычно наблюдается дымка, при ухудшении видимости до 1 км и менее - туман. В сухую погоду видимость может ухудшаться дымом, пылью или мглою.
Явления - указаны атмосферные явления, наблюдавшиеся в срок или в последний час перед сроком; фигурными скобками обозначены явления, наблюдавшиеся между сроками (за 1-3 часа до срока); квадратными скобками обозначены град или гололедные отложения с указанием их диаметра в мм.
Облачность - указаны через наклонную черту общая и нижняя облачность в баллах и высота нижней границы облаков в метрах; квадратными скобками обозначены формы облаков: Ci - перистые, Cs - перисто-слоистые, Cc - перисто-кучевые, Ac - высококучевые, As - высокослоистые, Sc - слоисто-кучевые, Ns - слоисто-дождевые, Cu - кучевые, Cb - кучево-дождевые. Подробнее классификацию облаков см. в Атласе облаков (PDF).
T - Температура воздуха - температура, измеренная на высоте 2 м над землей.
Td - Температура точки росы - температура, при понижении до которой содержащийся в воздухе водяной пар достигнет насыщения.
f - Относительная влажность воздуха - влажноcть воздуха, измеренная на высоте 2 м над землей.
Te - Эффективная температура - температура, которую ощущает одетый по сезону человек в тени. Характеристика душности погоды. При расчете учитывается влияние влажности воздуха и скорости ветра на теплоощущения человека.
Tes - Эффективная температура на солнце - температура, которую ощущает человек, с поправкой на солнечный нагрев. Характеристика знойности погоды. Зависит от высоты солнца над горизонтом, облачности и скорости ветра. Ночью, в пасмурную погоду, а также при ветре 12 м/с и более поправка равна нулю.
P - Атмосферное давление - приведенное к уровню моря атмосферное давление.
Po - Атмосферное давление - измеренное на уровне метеостанции атмосферное давление.
Tmin - Минимальная температура - минимум температуры воздуха на высоте 2 м над землей.
Tmax - Максимальная температура - максимум температуры воздуха на высоте 2 м над землей.
R - Количество осадков - Количество выпавших осадков за период времени, мм. При наведении курсора мыши на число - период времени, за который выпало указанное количество осадков.
R24 - Количество осадков - Количество выпавших осадков за 24 часа, мм.
S - Снежный покров - Высота снежного покрова, см. При наведении курсора мыши на число - состояние снежного покрова и степень покрытия местности в баллах.